www.pogodaiklimat.ru

Погода и климат >> Архив погоды >> Аргентина >> San Miguel de Tucuman


ПОГОДА в San Miguel de Tucuman

  • Прогноз погоды в San Miguel de Tucuman
  • Монитор погоды в San Miguel de Tucuman
  • Климат города

АРХИВ ПОГОДЫ в San Miguel de Tucuman

Время (UTC), дата Ветер
(напр.,м/с)
 
Видим.   Явления Облачность Т
(С)
Тd
(С)
f
(%)
Тe
(С)
Тes
(С)
Комфортность P
(гПа)
Po
(гПа)
Тmin
(С)
Tmax
(С)
R
(мм)
R24
(мм)
S
(см)
09 18.04 С 2 5000 м слабая морось туман 10/6 120 м
[Frnb As op]
+14.6 +13.6 94 +14 +14 1016.4 964.6
12 18.04 В 2 2000 м слабая морось туман 10/9 120 м
[Frnb As op]
+15.2 +14.3 94 +15 +15 1017.1 965.2 +14.4 +16.6 0.7
15 18.04 ЮВ 2 4000 м в посл. час морось туман 10/8 180 м
[Frnb As op]
+16.8 +15.1 90 +17 +17 1016.9 965.0
18 18.04 ЮВ 2 2000 м слабый дождь {морось} туман 10/9 120 м
[Frnb As op]
+16.4 +15.4 94 +16 +17 1014.7 962.9 3
21 18.04 штиль 0 2000 м слабая морось {дождь} туман 10/9 120 м
[Frnb As op]
+15.4 +14.4 94 +15 +15 1014.8 962.9
00 19.04 З 2 3000 м слабая морось {дождь} туман 10/9 150 м
[Frnb As op]
+14.8 +13.8 94 +14 +14 1017.1 965.0 +14.2 +17.1 8
03 19.04 ЮЗ 2 5000 м дымка {морось} 10/10 120 м
[St]
+15.2 +14.3 94 +15 +15 1017.2 965.3
06 19.04 СЗ 2 2000 м морось туман 10/10 120 м
[Frnb]
+14.6 +13.9 96 +14 +14 1015.7 963.8 0.3
09 19.04 штиль 0 8000 м дымка {морось} 10/10 150 м
[Frnb]
+14.6 +13.6 94 +14 +14 1014.2 962.2
12 19.04 ЮЗ 3 1000 м слабая морось {туман} туман 10/10 90 м
[Frnb]
+14.8 +14.2 96 +14 +14 1013.3 961.4 +14.2 +15.2 12
15 19.04 ЮВ 2 10 км 9/8 450 м
[Cu hum Ac As]
+17.5 +14.5 83 +18 +19 1013.1 961.4
18 19.04 ЮВ 2 10 км 9/8 600 м
[Cu hum Ac As]
+19.7 +14.4 71 +22 +24 комфорт 1011.8 960.4 0.0
21 19.04 Ю 4 10 км 3/3 1050 м
[Sc diur, vesp Ac trans]
+20.2 +15.3 73 +23 +23 комфорт 1011.0 959.6
00 20.04 С 2 9000 м дым ясно +16.0 +13.8 87 +16 +16 1012.1 960.4 +14.7 +20.5
03 20.04 С 4 12 км ясно +15.2 +13.1 87 +14 +14 1012.4 960.8
06 20.04 З 5 12 км ясно +13.8 +12.4 91 +12 +12 1012.3 960.8
09 20.04 З 3 12 км ясно +13.2 +11.8 91 +12 +12 1011.7 960.2
12 20.04 З 2 15 км ясно +14.7 +12.6 87 +14 +16 1013.2 961.4 +12.9 +16.0 0.0
15 20.04 штиль 0 15 км ясно +23.0 +15.8 64 +27 +43 душно 1012.5 961.4
18 20.04 штиль 0 15 км 1/1 1050 м
[Cu hum]
+25.4 +13.1 46 +27 +40 жарко 1009.1 958.2
21 20.04 В 3 12 км 3/0
[Cs]
+25.5 +14.3 50 +28 +29 жарко 1007.0 956.2
00 21.04 штиль 0 8000 м дым ясно +19.2 +14.5 74 +20 +20 1009.5 958.2 +14.7 +26.2
03 21.04 штиль 0 12 км ясно +15.3 +13.4 88 +15 +15 1010.3 959.3
06 21.04 СЗ 3 12 км 9/9 1050 м
[Sc]
+15.2 +13.8 91 +14 +14 1010.8 960.0
09 21.04 ЮЗ 2 8000 м дымка 9/9 1050 м
[Sc]
+16.0 +14.7 92 +16 +16 1012.2 961.4
12 21.04 штиль 0 7000 м дымка 9/9 1200 м
[Sc]
+16.6 +15.3 92 +16 +17 1015.4 963.8 +14.0 +19.2
15 21.04 штиль 0 12 км 3/1 900 м
[Cu hum Ac trans]
+22.4 +15.4 65 +26 +38 жарко 1016.2 964.9
18 21.04 ЮВ 3 12 км 8/6 1200 м
[Cu hum Ac As]
+24.0 +14.9 57 +27 +29 жарко 1014.3 963.2
21 21.04 Ю 2 12 км 9/9 1200 м
[Sc]
+22.2 +17.2 73 +27 +27 душно 1014.5 963.3
00 22.04 С 2 12 км 9/9 1200 м
[Sc]
+20.6 +17.1 80 +25 +25 комфорт 1016.8 965.4 +16.6 +24.0
03 22.04 СВ 2 12 км 10/10 900 м
[Sc]
+19.7 +15.1 75 +22 +22 комфорт 1017.2 966.2
06 22.04 З 2 7000 м слабая морось туман 10/10 540 м
[Frnb]
+18.2 +16.3 89 +19 +19 1016.1 965.0
09 22.04 штиль 0 6000 м дымка {морось} 10/10 90 м
[Frnb]
+17.2 +16.6 96 +17 +17 1015.7 964.5
12 22.04 штиль 0 4000 м дымка туман 10/10 90 м
[Frnb]
+17.4 +16.4 94 +17 +17 1017.2 965.8 +17.2 +20.6
15 22.04 ЮЗ 2 8000 м дымка туман 9/8 450 м
[Frnb Ac trans]
+20.9 +17.3 80 +25 +27 комфорт 1016.5 965.4
18 22.04 ЮВ 2 10 км 10/8 750 м
[Cu hum Ac trans]
+23.1 +16.6 67 +28 +29 душно 1013.7 962.8
21 22.04 Ю 3 7000 м дымка 10/10 800 м
[Sc]
+20.0 +17.5 86 +23 +23 комфорт 1015.1 963.8
00 23.04 Ю 3 7000 м дымка 10/10 750 м
[Sc]
+18.4 +16.8 90 +19 +19 1017.3 965.7 +17.4 +23.4
03 23.04 Ю 1 5000 м в посл. час дождь туман 10/10 180 м
[Frnb]
+18.0 +17.0 94 +19 +19 1017.6 966.2
06 23.04 штиль 0 4000 м дымка {дождь} 10/10 240 м
[Frnb]
+18.1 +17.1 94 +18 +18 1015.3 964.2 1
09 23.04 штиль 0 4000 м дымка 9/9 600 м
[Sc]
+17.8 +16.8 94 +18 +18 1014.0 962.8
12 23.04 штиль 0 2000 м в посл. час туман туман 10/4 60 м
[Frnb Ac As]
+17.9 +17.3 96 +18 +18 1014.7 963.3 +17.2 +18.4 1
15 23.04 СВ 2 12 км 9/4 450 м
[Cu hum Ac trans]
+22.0 +17.1 74 +26 +30 душно 1013.7 962.6
18 23.04 СВ 3 12 км 8/4 900 м
[Cu hum Ac trans]
+24.9 +17.1 62 +29 +32 душно 1009.9 959.3
21 23.04 С 4 12 км 9/5 900 м
[Sc diur, vesp Ac trans]
+23.4 +17.5 69 +29 +29 душно 1008.8 958.1
00 24.04 Ю 3 10 км 6/5 1200 м
[Sc Ac trans]
+19.8 +17.6 87 +23 +23 комфорт 1009.7 958.6 +17.9 +25.4
03 24.04 В 2 10 км 1/1 1200 м
[Sc]
+18.4 +16.5 89 +20 +20 1009.8 959.0
06 24.04 С 3 12 км 1/1 1200 м
[Sc]
+16.2 +14.2 88 +16 +16 1009.3 958.6
09 24.04 Ю 2 12 км 9/9 1200 м
[Sc]
+16.6 +15.3 92 +17 +17 1009.4 958.6
12 24.04 штиль 0 9000 м дымка туман 9/6 1050 м
[Sc Ac trans]
+18.3 +17.0 92 +19 +19 1011.1 960.0 +15.7 +19.8
15 24.04 ЮЗ 3 10 км 5/5 750 м
[Cu hum]
+23.2 +17.4 70 +29 +34 душно 1010.1 959.4
18 24.04 ЮВ 5 10 км 6/6 <50 м
[Cu hum]
+24.3 +17.8 67 +28 +31 душно 1006.8 956.2
21 24.04 Ю 2 12 км 9/9 1050 м
[Cu med, cong]
+24.0 +18.1 70 +28 +28 душно 1005.9 955.3
00 25.04 СВ 2 12 км 10/10 1050 м
[Sc]
+21.2 +19.1 88 +26 +26 душно 1007.0 956.2 +18.3 +25.5
03 25.04 штиль 0 12 км 9/9 660 м
[Sc]
+19.9 +18.8 93 +23 +23 комфорт 1006.6 956.2

 

Местоположение метеостанции San Miguel de Tucuman (Аргентина): широта -26.85 долгота -65.09 высота над уровнем моря 450 м.

В архиве по умолчанию представлена погода в San Miguel de Tucuman за последнюю неделю. Архивные данные за месяц целиком и за предыдущие месяцы, начиная с января 2011 года, Вы можете получить, выбрав интересующий диапазон дат из раскрывающегося списка и нажав кнопку "Ввод!".

Внимание! Время в таблицах - всемирное. Для получения местного времени необходимо прибавить поправку, которая в San Miguel de Tucuman равна -3 ч.

Смотрите также архив погоды в соседних городах и на ближайших метеорологических станциях:

Погода в Santiago del Estero (Аргентина) (128 км)
Погода в San Fernando del Valle de Catamarca (Аргентина) (206 км)
Погода в Salta (Аргентина) (226 км)
Погода в San Salvador de Jujuy (Аргентина) (275 км)
Погода в La Rioja (Аргентина) (328 км)
Погода в Villa de Maria del Rio Seco (Аргентина) (366 км)
Погода в Chamical (Аргентина) (407 км)
Погода в San Ramon de la Nueva Oran (Аргентина) (419 км)
Погода в Ceres (Аргентина) (456 км)
Погода в Presidencia Roque Saenz Pena (Аргентина) (458 км)

Пояснения к столбцам:

Ветер - указаны скорость ветра в м/с - средняя за 10 мин, порывы в срок и между сроками (в фигурных скобках) и направление, откуда дует ветер: С - северный, СВ - северо-восточный, В - восточный, ЮВ - юго-восточный, Ю - южный, ЮЗ - юго-западный, З - западный, СЗ - северо-западный.
Видимость - горизонтальная дальность видимости в метрах или километрах. При видимости от 1 до 10 км при отсутствии осадков обычно наблюдается дымка, при ухудшении видимости до 1 км и менее - туман. В сухую погоду видимость может ухудшаться дымом, пылью или мглою.
Явления - указаны атмосферные явления, наблюдавшиеся в срок или в последний час перед сроком; фигурными скобками обозначены явления, наблюдавшиеся между сроками (за 1-3 часа до срока); квадратными скобками обозначены град или гололедные отложения с указанием их диаметра в мм.
Облачность - указаны через наклонную черту общая и нижняя облачность в баллах и высота нижней границы облаков в метрах; квадратными скобками обозначены формы облаков: Ci - перистые, Cs - перисто-слоистые, Cc - перисто-кучевые, Ac - высококучевые, As - высокослоистые, Sc - слоисто-кучевые, Ns - слоисто-дождевые, Cu - кучевые, Cb - кучево-дождевые. Подробнее классификацию облаков см. в Атласе облаков (PDF).
T - Температура воздуха - температура, измеренная на высоте 2 м над землей.
Td - Температура точки росы - температура, при понижении до которой содержащийся в воздухе водяной пар достигнет насыщения.
f - Относительная влажность воздуха - влажноcть воздуха, измеренная на высоте 2 м над землей.
Te - Эффективная температура - температура, которую ощущает одетый по сезону человек в тени. Характеристика душности погоды. При расчете учитывается влияние влажности воздуха и скорости ветра на теплоощущения человека.
Tes - Эффективная температура на солнце - температура, которую ощущает человек, с поправкой на солнечный нагрев. Характеристика знойности погоды. Зависит от высоты солнца над горизонтом, облачности и скорости ветра. Ночью, в пасмурную погоду, а также при ветре 12 м/с и более поправка равна нулю.
P - Атмосферное давление - приведенное к уровню моря атмосферное давление.
Po - Атмосферное давление - измеренное на уровне метеостанции атмосферное давление.
Tmin - Минимальная температура - минимум температуры воздуха на высоте 2 м над землей.
Tmax - Максимальная температура - максимум температуры воздуха на высоте 2 м над землей.
R - Количество осадков - Количество выпавших осадков за период времени, мм. При наведении курсора мыши на число - период времени, за который выпало указанное количество осадков.
R24 - Количество осадков - Количество выпавших осадков за 24 часа, мм.
S - Снежный покров - Высота снежного покрова, см. При наведении курсора мыши на число - состояние снежного покрова и степень покрытия местности в баллах.